Time,TemperatureF,DewpointF,PressureIn,WindDirection,WindDirectionDegrees,WindSpeedMPH,WindSpeedGustMPH,Humidity,HourlyPrecipIn,Conditions,Clouds,dailyrainin,SolarRadiationWatts/m^2,SoftwareType,DateUTC
2013-04-19 00:01:00,57.1,53.6,30.09,ESE,104,2.0,3.0,88,0.00,,,0.00,0,Wunderground v.1.15,2013-04-19 04:01:00,
2013-04-19 00:02:00,57.2,53.7,30.09,ESE,104,1.0,3.0,88,0.00,,,0.00,0,Wunderground v.1.15,2013-04-19 04:02:00,
2013-04-19 00:04:00,57.2,53.7,30.10,ESE,104,4.0,4.0,88,0.00,,,0.00,0,Wunderground v.1.15,2013-04-19 04:04:00,
2013-04-19 00:06:00,57.1,53.6,30.09,ESE,104,0.0,4.0,88,0.00,,,0.00,0,Wunderground v.1.15,2013-04-19 04:06:00,
2013-04-19 00:12:00,57.0,53.5,30.09,ESE,107,2.0,2.0,88,0.00,,,0.00,0,Wunderground v.1.15,2013-04-19 04:12:00,
2013-04-19 00:17:00,56.9,53.4,30.09,ESE,122,3.0,6.0,88,0.00,,,0.00,0,Wunderground v.1.15,2013-04-19 04:17:00,
2013-04-19 00:21:00,56.8,53.3,30.09,SE,129,0.0,2.0,88,0.00,,,0.00,0,Wunderground v.1.15,2013-04-19 04:21:00,
2013-04-19 00:26:00,56.6,53.1,30.08,SE,144,2.0,4.0,88,0.00,,,0.00,0,Wunderground v.1.15,2013-04-19 04:26:00,
2013-04-19 00:31:00,56.4,52.9,30.08,ESE,111,1.0,2.0,88,0.00,,,0.00,0,Wunderground v.1.15,2013-04-19 04:31:00,
2013-04-19 00:36:00,56.4,52.9,30.08,SE,130,3.0,7.0,88,0.00,,,0.00,0,Wunderground v.1.15,2013-04-19 04:36:00,
2013-04-19 00:42:00,56.3,52.8,30.08,ESE,109,4.0,4.0,88,0.00,,,0.00,0,Wunderground v.1.15,2013-04-19 04:42:00,
2013-04-19 00:47:00,56.2,52.7,30.07,SE,137,1.0,4.0,88,0.00,,,0.00,0,Wunderground v.1.15,2013-04-19 04:47:00,
2013-04-19 00:54:00,56.2,52.7,30.07,South,179,4.0,6.0,88,0.00,,,0.00,0,Wunderground v.1.15,2013-04-19 04:54:00,
2013-04-19 00:59:00,56.2,52.7,30.07,SE,125,1.0,10.0,88,0.00,,,0.00,0,Wunderground v.1.15,2013-04-19 04:59:00,
2013-04-19 01:05:00,56.0,52.5,30.07,ESE,123,4.0,4.0,88,0.00,,,0.00,0,Wunderground v.1.15,2013-04-19 05:05:00,
2013-04-19 01:10:00,56.2,52.7,30.07,ESE,107,0.0,0.0,88,0.00,,,0.00,0,Wunderground v.1.15,2013-04-19 05:10:00,
2013-04-19 01:15:00,56.2,52.7,30.06,ESE,113,4.0,4.0,88,0.00,,,0.00,0,Wunderground v.1.15,2013-04-19 05:15:00,
2013-04-19 01:21:00,56.1,52.6,30.06,SE,141,0.0,0.0,88,0.00,,,0.00,0,Wunderground v.1.15,2013-04-19 05:21:00,
2013-04-19 01:26:00,56.3,52.8,30.06,ESE,117,0.0,2.0,88,0.00,,,0.00,0,Wunderground v.1.15,2013-04-19 05:26:00,
2013-04-19 01:31:00,56.4,52.9,30.06,ESE,116,2.0,4.0,88,0.00,,,0.00,0,Wunderground v.1.15,2013-04-19 05:31:00,
2013-04-19 01:36:00,56.4,52.9,30.06,ESE,123,2.0,4.0,88,0.00,,,0.00,0,Wunderground v.1.15,2013-04-19 05:36:00,
2013-04-19 01:41:00,56.6,53.1,30.06,SE,143,5.0,5.0,88,0.00,,,0.00,0,Wunderground v.1.15,2013-04-19 05:41:00,
2013-04-19 01:46:00,56.9,53.4,30.06,South,169,0.0,5.0,88,0.00,,,0.00,0,Wunderground v.1.15,2013-04-19 05:46:00,
2013-04-19 01:51:00,57.1,53.6,30.06,South,171,2.0,2.0,88,0.00,,,0.00,0,Wunderground v.1.15,2013-04-19 05:51:00,
2013-04-19 01:57:00,57.4,53.9,30.05,SSE,168,4.0,4.0,88,0.00,,,0.00,0,Wunderground v.1.15,2013-04-19 05:57:00,
2013-04-19 02:02:00,57.5,54.3,30.05,South,182,2.0,9.0,89,0.00,,,0.00,0,Wunderground v.1.15,2013-04-19 06:02:00,
2013-04-19 02:07:00,57.8,54.6,30.04,SSW,206,1.0,9.0,89,0.00,,,0.00,0,Wunderground v.1.15,2013-04-19 06:07:00,
2013-04-19 02:12:00,58.1,54.6,30.04,SSE,151,0.0,6.0,88,0.00,,,0.00,0,Wunderground v.1.15,2013-04-19 06:12:00,
2013-04-19 02:17:00,58.2,54.7,30.03,South,176,1.0,6.0,88,0.00,,,0.00,0,Wunderground v.1.15,2013-04-19 06:17:00,
2013-04-19 02:22:00,58.4,54.9,30.04,SE,136,1.0,6.0,88,0.00,,,0.00,0,Wunderground v.1.15,2013-04-19 06:22:00,
2013-04-19 02:27:00,58.6,55.4,30.04,SE,133,2.0,6.0,89,0.00,,,0.00,0,Wunderground v.1.15,2013-04-19 06:27:00,
2013-04-19 02:32:00,58.7,55.5,30.04,SE,124,2.0,6.0,89,0.00,,,0.00,0,Wunderground v.1.15,2013-04-19 06:32:00,
2013-04-19 02:37:00,58.8,55.3,30.04,ESE,123,0.0,6.0,88,0.00,,,0.00,0,Wunderground v.1.15,2013-04-19 06:37:00,
2013-04-19 02:42:00,58.9,55.4,30.03,SSE,149,2.0,6.0,88,0.00,,,0.00,0,Wunderground v.1.15,2013-04-19 06:42:00,
2013-04-19 02:47:00,58.9,55.4,30.03,SE,128,4.0,6.0,88,0.00,,,0.00,0,Wunderground v.1.15,2013-04-19 06:47:00,
2013-04-19 02:52:00,59.2,55.6,30.03,SE,128,2.0,6.0,88,0.00,,,0.00,0,Wunderground v.1.15,2013-04-19 06:52:00,
2013-04-19 02:57:00,59.4,55.8,30.02,SSW,208,1.0,8.0,88,0.00,,,0.00,0,Wunderground v.1.15,2013-04-19 06:57:00,
2013-04-19 03:02:00,59.6,56.4,30.02,SW,229,2.0,7.0,89,0.00,,,0.00,0,Wunderground v.1.15,2013-04-19 07:02:00,
2013-04-19 03:07:00,59.6,56.4,30.02,East,90,3.0,7.0,89,0.00,,,0.00,0,Wunderground v.1.15,2013-04-19 07:07:00,
2013-04-19 03:12:00,59.8,56.6,30.01,SSE,161,1.0,8.0,89,0.00,,,0.00,0,Wunderground v.1.15,2013-04-19 07:12:00,
2013-04-19 03:17:00,59.9,56.6,30.02,South,183,1.0,8.0,89,0.00,,,0.00,0,Wunderground v.1.15,2013-04-19 07:17:00,
2013-04-19 03:22:00,60.0,56.7,30.01,SSE,156,3.0,9.0,89,0.00,,,0.00,0,Wunderground v.1.15,2013-04-19 07:22:00,
2013-04-19 03:27:00,60.1,56.5,30.01,SSE,165,3.0,9.0,88,0.00,,,0.00,0,Wunderground v.1.15,2013-04-19 07:27:00,
2013-04-19 03:32:00,60.0,56.7,30.00,South,170,6.0,7.0,89,0.00,,,0.00,0,Wunderground v.1.15,2013-04-19 07:32:00,
2013-04-19 03:37:00,59.9,56.3,30.00,SSW,197,1.0,7.0,88,0.00,,,0.00,0,Wunderground v.1.15,2013-04-19 07:37:00,
2013-04-19 03:42:00,59.9,56.3,30.00,South,187,3.0,6.0,88,0.00,,,0.00,0,Wunderground v.1.15,2013-04-19 07:42:00,
2013-04-19 03:47:00,59.9,56.3,30.00,South,169,5.0,10.0,88,0.00,,,0.00,0,Wunderground v.1.15,2013-04-19 07:47:00,
2013-04-19 03:52:00,59.8,56.2,30.00,SSW,210,2.0,10.0,88,0.00,,,0.00,0,Wunderground v.1.15,2013-04-19 07:52:00,
2013-04-19 03:57:00,59.8,56.2,29.99,SSE,160,3.0,10.0,88,0.00,,,0.00,0,Wunderground v.1.15,2013-04-19 07:57:00,
2013-04-19 04:02:00,59.9,56.3,29.99,SE,136,6.0,7.0,88,0.00,,,0.00,0,Wunderground v.1.15,2013-04-19 08:02:00,
2013-04-19 04:07:00,59.6,56.0,29.99,SE,132,3.0,8.0,88,0.00,,,0.00,0,Wunderground v.1.15,2013-04-19 08:07:00,
2013-04-19 04:12:00,59.6,56.0,29.99,SSE,166,1.0,5.0,88,0.00,,,0.00,0,Wunderground v.1.15,2013-04-19 08:12:00,
2013-04-19 04:17:00,59.5,55.9,29.99,WSW,240,1.0,9.0,88,0.00,,,0.00,0,Wunderground v.1.15,2013-04-19 08:17:00,
2013-04-19 04:22:00,59.6,56.0,30.00,South,189,5.0,7.0,88,0.00,,,0.00,0,Wunderground v.1.15,2013-04-19 08:22:00,
2013-04-19 04:27:00,59.5,55.9,29.99,SSW,199,5.0,8.0,88,0.00,,,0.00,0,Wunderground v.1.15,2013-04-19 08:27:00,
2013-04-19 04:32:00,59.3,55.7,30.00,SSE,149,3.0,5.0,88,0.00,,,0.00,0,Wunderground v.1.15,2013-04-19 08:32:00,
2013-04-19 04:37:00,59.1,55.5,30.00,South,175,1.0,5.0,88,0.00,,,0.00,0,Wunderground v.1.15,2013-04-19 08:37:00,
2013-04-19 04:42:00,59.1,55.2,29.99,SE,140,1.0,7.0,87,0.00,,,0.00,0,Wunderground v.1.15,2013-04-19 08:42:00,
2013-04-19 04:47:00,58.9,55.4,29.99,SSE,151,1.0,7.0,88,0.00,,,0.00,0,Wunderground v.1.15,2013-04-19 08:47:00,
2013-04-19 04:52:00,58.8,54.9,29.99,South,187,1.0,6.0,87,0.00,,,0.00,0,Wunderground v.1.15,2013-04-19 08:52:00,
2013-04-19 04:57:00,58.8,54.9,29.99,SSE,156,3.0,6.0,87,0.00,,,0.00,0,Wunderground v.1.15,2013-04-19 08:57:00,
2013-04-19 05:02:00,58.7,55.2,29.99,South,172,4.0,6.0,88,0.00,,,0.00,0,Wunderground v.1.15,2013-04-19 09:02:00,
2013-04-19 05:07:00,58.5,54.6,29.99,SE,139,0.0,8.0,87,0.00,,,0.00,0,Wunderground v.1.15,2013-04-19 09:07:00,
2013-04-19 05:12:00,58.4,54.5,29.98,SE,139,3.0,4.0,87,0.00,,,0.00,0,Wunderground v.1.15,2013-04-19 09:12:00,
2013-04-19 05:17:00,58.6,54.7,29.98,SE,140,0.0,5.0,87,0.00,,,0.00,0,Wunderground v.1.15,2013-04-19 09:17:00,
2013-04-19 05:22:00,58.4,54.5,29.98,SE,139,2.0,4.0,87,0.00,,,0.00,0,Wunderground v.1.15,2013-04-19 09:22:00,
2013-04-19 05:27:00,58.4,54.5,29.98,SW,221,3.0,8.0,87,0.00,,,0.00,0,Wunderground v.1.15,2013-04-19 09:27:00,
2013-04-19 05:32:00,58.4,54.9,29.98,ESE,119,0.0,6.0,88,0.00,,,0.00,0,Wunderground v.1.15,2013-04-19 09:32:00,
2013-04-19 05:37:00,58.5,55.0,29.98,ESE,108,2.0,6.0,88,0.00,,,0.00,0,Wunderground v.1.15,2013-04-19 09:37:00,
2013-04-19 05:42:00,58.5,55.0,29.98,SE,142,1.0,5.0,88,0.00,,,0.00,0,Wunderground v.1.15,2013-04-19 09:42:00,
2013-04-19 05:47:00,58.5,55.0,29.98,SSW,208,5.0,6.0,88,0.00,,,0.00,0,Wunderground v.1.15,2013-04-19 09:47:00,
2013-04-19 05:52:00,58.6,55.1,29.98,South,189,3.0,4.0,88,0.00,,,0.00,0,Wunderground v.1.15,2013-04-19 09:52:00,
2013-04-19 05:57:00,58.7,55.2,29.98,East,93,1.0,6.0,88,0.00,,,0.00,0,Wunderground v.1.15,2013-04-19 09:57:00,
2013-04-19 06:02:00,58.7,55.2,29.98,SE,145,4.0,6.0,88,0.00,,,0.00,0,Wunderground v.1.15,2013-04-19 10:02:00,
2013-04-19 06:07:00,58.6,54.7,29.98,SSW,201,2.0,6.0,87,0.00,,,0.00,0,Wunderground v.1.15,2013-04-19 10:07:00,
2013-04-19 06:12:00,58.6,54.7,29.98,SE,124,0.0,4.0,87,0.00,,,0.00,0,Wunderground v.1.15,2013-04-19 10:12:00,
2013-04-19 06:17:00,58.6,54.7,29.98,SE,131,0.0,4.0,87,0.00,,,0.00,0,Wunderground v.1.15,2013-04-19 10:17:00,
2013-04-19 06:22:00,58.6,55.1,29.98,SSE,156,3.0,5.0,88,0.00,,,0.00,0,Wunderground v.1.15,2013-04-19 10:22:00,
2013-04-19 06:27:00,58.7,55.2,29.98,South,185,4.0,6.0,88,0.00,,,0.00,0,Wunderground v.1.15,2013-04-19 10:27:00,
2013-04-19 06:32:00,58.8,55.3,29.97,SSE,164,2.0,6.0,88,0.00,,,0.00,0,Wunderground v.1.15,2013-04-19 10:32:00,
2013-04-19 06:37:00,59.1,55.2,29.97,South,176,4.0,7.0,87,0.00,,,0.00,0,Wunderground v.1.15,2013-04-19 10:37:00,
2013-04-19 06:42:00,59.3,55.7,29.98,South,180,6.0,6.0,88,0.00,,,0.00,0,Wunderground v.1.15,2013-04-19 10:42:00,
2013-04-19 06:47:00,59.6,56.0,29.98,SE,137,3.0,8.0,88,0.00,,,0.00,0,Wunderground v.1.15,2013-04-19 10:47:00,
2013-04-19 06:52:00,59.9,56.3,29.98,South,189,0.0,6.0,88,0.00,,,0.00,0,Wunderground v.1.15,2013-04-19 10:52:00,
2013-04-19 06:57:00,60.2,56.3,29.98,South,171,3.0,9.0,87,0.00,,,0.00,0,Wunderground v.1.15,2013-04-19 10:57:00,
2013-04-19 07:02:00,60.4,56.5,29.99,SSE,165,5.0,7.0,87,0.00,,,0.00,0,Wunderground v.1.15,2013-04-19 11:02:00,
2013-04-19 07:07:00,60.8,56.9,29.99,ESE,117,3.0,10.0,87,0.00,,,0.00,0,Wunderground v.1.15,2013-04-19 11:07:00,
2013-04-19 07:12:00,61.0,57.1,29.99,South,174,2.0,11.0,87,0.00,,,0.00,0,Wunderground v.1.15,2013-04-19 11:12:00,
2013-04-19 07:17:00,61.1,57.2,29.99,SSE,160,2.0,11.0,87,0.00,,,0.00,0,Wunderground v.1.15,2013-04-19 11:17:00,
2013-04-19 07:22:00,61.3,57.1,29.99,ESE,114,3.0,5.0,86,0.00,,,0.00,0,Wunderground v.1.15,2013-04-19 11:22:00,
2013-04-19 07:27:00,61.6,57.4,29.99,SSW,200,4.0,7.0,86,0.00,,,0.00,0,Wunderground v.1.15,2013-04-19 11:27:00,
2013-04-19 07:32:00,61.8,57.6,29.99,SSE,165,4.0,10.0,86,0.00,,,0.00,0,Wunderground v.1.15,2013-04-19 11:32:00,
2013-04-19 07:37:00,61.9,57.7,29.99,South,175,3.0,11.0,86,0.00,,,0.00,0,Wunderground v.1.15,2013-04-19 11:37:00,
2013-04-19 07:42:00,62.0,57.8,29.99,SSW,209,1.0,10.0,86,0.00,,,0.00,0,Wunderground v.1.15,2013-04-19 11:42:00,
2013-04-19 07:47:00,62.1,57.9,29.99,SE,131,4.0,10.0,86,0.00,,,0.00,0,Wunderground v.1.15,2013-04-19 11:47:00,
2013-04-19 07:52:00,62.0,57.8,29.98,SSW,203,2.0,12.0,86,0.00,,,0.00,0,Wunderground v.1.15,2013-04-19 11:52:00,
2013-04-19 07:57:00,62.1,57.9,29.98,South,175,7.0,12.0,86,0.00,,,0.00,0,Wunderground v.1.15,2013-04-19 11:57:00,
2013-04-19 08:02:00,62.2,58.0,29.98,SSE,153,2.0,7.0,86,0.00,,,0.00,0,Wunderground v.1.15,2013-04-19 12:02:00,
2013-04-19 08:07:00,62.4,58.2,29.97,South,179,4.0,11.0,86,0.00,,,0.00,0,Wunderground v.1.15,2013-04-19 12:07:00,
2013-04-19 08:12:00,62.5,57.9,29.97,SSE,165,3.0,7.0,85,0.00,,,0.00,0,Wunderground v.1.15,2013-04-19 12:12:00,
2013-04-19 08:17:00,62.6,58.0,29.97,SSE,155,2.0,10.0,85,0.00,,,0.00,0,Wunderground v.1.15,2013-04-19 12:17:00,
2013-04-19 08:22:00,62.8,57.9,29.97,SE,143,4.0,12.0,84,0.00,,,0.00,0,Wunderground v.1.15,2013-04-19 12:22:00,
2013-04-19 08:27:00,63.2,58.6,29.97,SSE,168,2.0,12.0,85,0.00,,,0.00,0,Wunderground v.1.15,2013-04-19 12:27:00,
2013-04-19 08:32:00,63.6,59.0,29.97,SE,126,2.0,12.0,85,0.00,,,0.00,0,Wunderground v.1.15,2013-04-19 12:32:00,
2013-04-19 08:37:00,64.1,59.2,29.97,SE,126,3.0,12.0,84,0.00,,,0.00,0,Wunderground v.1.15,2013-04-19 12:37:00,
2013-04-19 08:42:00,64.5,59.6,29.97,SSW,200,4.0,11.0,84,0.00,,,0.00,0,Wunderground v.1.15,2013-04-19 12:42:00,
2013-04-19 08:47:00,64.9,59.6,29.96,SSE,165,6.0,11.0,83,0.00,,,0.00,0,Wunderground v.1.15,2013-04-19 12:47:00,
2013-04-19 08:52:00,65.2,59.6,29.96,South,190,2.0,9.0,82,0.00,,,0.00,0,Wunderground v.1.15,2013-04-19 12:52:00,
2013-04-19 08:57:00,65.5,59.5,29.96,SSW,192,4.0,10.0,81,0.00,,,0.00,0,Wunderground v.1.15,2013-04-19 12:57:00,
2013-04-19 09:02:00,65.9,59.6,29.96,South,178,6.0,12.0,80,0.00,,,0.00,0,Wunderground v.1.15,2013-04-19 13:02:00,
2013-04-19 09:08:00,66.6,59.9,29.96,SE,138,0.0,12.0,79,0.00,,,0.00,0,Wunderground v.1.15,2013-04-19 13:08:00,
2013-04-19 09:13:00,67.5,60.4,29.96,South,177,3.0,7.0,78,0.00,,,0.00,0,Wunderground v.1.15,2013-04-19 13:13:00,
2013-04-19 09:18:00,67.8,59.6,29.96,SSW,198,7.0,17.0,75,0.00,,,0.00,0,Wunderground v.1.15,2013-04-19 13:18:00,
2013-04-19 09:24:00,67.8,60.0,29.95,SE,140,1.0,15.0,76,0.00,,,0.00,0,Wunderground v.1.15,2013-04-19 13:24:00,
2013-04-19 09:29:00,68.4,59.8,29.95,SW,221,4.0,15.0,74,0.00,,,0.00,0,Wunderground v.1.15,2013-04-19 13:29:00,
2013-04-19 09:34:00,68.5,59.5,29.95,SSW,199,6.0,10.0,73,0.00,,,0.00,0,Wunderground v.1.15,2013-04-19 13:34:00,
2013-04-19 09:39:00,68.5,59.5,29.95,SSW,193,5.0,11.0,73,0.00,,,0.00,0,Wunderground v.1.15,2013-04-19 13:39:00,
2013-04-19 09:44:00,68.8,59.0,29.95,SW,214,5.0,10.0,71,0.00,,,0.00,0,Wunderground v.1.15,2013-04-19 13:44:00,
2013-04-19 09:49:00,69.0,58.8,29.94,SE,146,2.0,10.0,70,0.00,,,0.00,0,Wunderground v.1.15,2013-04-19 13:49:00,
2013-04-19 09:54:00,69.2,58.6,29.94,SE,128,3.0,10.0,69,0.00,,,0.00,0,Wunderground v.1.15,2013-04-19 13:54:00,
2013-04-19 09:59:00,69.3,57.5,29.94,SW,218,9.0,20.0,66,0.00,,,0.00,0,Wunderground v.1.15,2013-04-19 13:59:00,
2013-04-19 10:04:00,69.5,58.1,29.94,SSE,165,2.0,11.0,67,0.00,,,0.00,0,Wunderground v.1.15,2013-04-19 14:04:00,
2013-04-19 10:09:00,69.8,57.9,29.94,SE,139,3.0,12.0,66,0.00,,,0.00,0,Wunderground v.1.15,2013-04-19 14:09:00,
2013-04-19 10:14:00,69.8,58.3,29.93,SSW,199,3.0,15.0,67,0.00,,,0.00,0,Wunderground v.1.15,2013-04-19 14:14:00,
2013-04-19 10:19:00,69.4,58.0,29.93,South,187,5.0,17.0,67,0.00,,,0.00,0,Wunderground v.1.15,2013-04-19 14:19:00,
2013-04-19 10:24:00,69.7,58.3,29.93,South,182,8.0,13.0,67,0.00,,,0.00,0,Wunderground v.1.15,2013-04-19 14:24:00,
2013-04-19 10:29:00,70.1,57.8,29.93,SSW,193,13.0,20.0,65,0.00,,,0.00,0,Wunderground v.1.15,2013-04-19 14:29:00,
2013-04-19 10:34:00,69.8,57.5,29.92,South,177,5.0,19.0,65,0.00,,,0.00,0,Wunderground v.1.15,2013-04-19 14:34:00,
2013-04-19 10:39:00,69.9,58.0,29.93,SSW,201,7.0,19.0,66,0.00,,,0.00,0,Wunderground v.1.15,2013-04-19 14:39:00,
2013-04-19 10:44:00,69.9,58.0,29.92,South,180,6.0,14.0,66,0.00,,,0.00,0,Wunderground v.1.15,2013-04-19 14:44:00,
2013-04-19 10:49:00,70.2,58.3,29.92,SSE,147,8.0,14.0,66,0.00,,,0.00,0,Wunderground v.1.15,2013-04-19 14:49:00,
2013-04-19 10:54:00,70.7,59.2,29.92,SSW,203,7.0,10.0,67,0.00,,,0.00,0,Wunderground v.1.15,2013-04-19 14:54:00,
2013-04-19 10:59:00,71.0,58.2,29.91,WSW,255,3.0,15.0,64,0.00,,,0.00,0,Wunderground v.1.15,2013-04-19 14:59:00,
2013-04-19 11:04:00,71.7,59.3,29.91,South,186,2.0,11.0,65,0.00,,,0.00,0,Wunderground v.1.15,2013-04-19 15:04:00,
2013-04-19 11:09:00,71.8,58.5,29.91,SSE,153,11.0,13.0,63,0.00,,,0.00,0,Wunderground v.1.15,2013-04-19 15:09:00,
2013-04-19 11:14:00,71.6,58.3,29.91,SE,137,3.0,15.0,63,0.00,,,0.00,0,Wunderground v.1.15,2013-04-19 15:14:00,
2013-04-19 11:19:00,71.4,58.6,29.91,SW,214,2.0,15.0,64,0.00,,,0.00,0,Wunderground v.1.15,2013-04-19 15:19:00,
2013-04-19 11:24:00,71.5,59.1,29.90,SSW,199,6.0,20.0,65,0.00,,,0.00,0,Wunderground v.1.15,2013-04-19 15:24:00,
2013-04-19 11:29:00,71.6,58.8,29.91,SSW,199,9.0,20.0,64,0.00,,,0.00,0,Wunderground v.1.15,2013-04-19 15:29:00,
2013-04-19 11:34:00,71.4,59.0,29.91,SSE,150,5.0,17.0,65,0.00,,,0.00,0,Wunderground v.1.15,2013-04-19 15:34:00,
2013-04-19 11:39:00,71.5,59.1,29.90,South,171,5.0,17.0,65,0.00,,,0.00,0,Wunderground v.1.15,2013-04-19 15:39:00,
2013-04-19 11:44:00,71.3,58.9,29.90,SSE,162,5.0,12.0,65,0.00,,,0.00,0,Wunderground v.1.15,2013-04-19 15:44:00,
2013-04-19 11:49:00,70.8,58.9,29.90,South,177,5.0,17.0,66,0.00,,,0.00,0,Wunderground v.1.15,2013-04-19 15:49:00,
2013-04-19 11:54:00,70.4,58.5,29.90,South,170,10.0,18.0,66,0.00,,,0.00,0,Wunderground v.1.15,2013-04-19 15:54:00,
2013-04-19 11:59:00,69.6,58.6,29.90,South,174,5.0,19.0,68,0.00,,,0.00,0,Wunderground v.1.15,2013-04-19 15:59:00,
2013-04-19 12:04:00,68.7,58.5,29.90,South,178,7.0,20.0,70,0.00,,,0.00,0,Wunderground v.1.15,2013-04-19 16:04:00,
2013-04-19 12:09:00,68.0,58.6,29.89,South,185,8.0,21.0,72,0.00,,,0.00,0,Wunderground v.1.15,2013-04-19 16:09:00,
2013-04-19 12:14:00,67.7,58.7,29.89,South,190,12.0,17.0,73,0.00,,,0.00,0,Wunderground v.1.15,2013-04-19 16:14:00,
2013-04-19 12:19:00,67.4,58.8,29.89,South,184,2.0,18.0,74,0.00,,,0.00,0,Wunderground v.1.15,2013-04-19 16:19:00,
2013-04-19 12:24:00,67.7,59.1,29.89,South,191,4.0,12.0,74,0.00,,,0.00,0,Wunderground v.1.15,2013-04-19 16:24:00,
2013-04-19 12:29:00,67.8,59.2,29.88,South,172,3.0,13.0,74,0.00,,,0.00,0,Wunderground v.1.15,2013-04-19 16:29:00,
2013-04-19 12:34:00,68.2,59.6,29.87,SE,146,3.0,11.0,74,0.00,,,0.00,0,Wunderground v.1.15,2013-04-19 16:34:00,
2013-04-19 12:39:00,68.4,59.8,29.87,South,189,3.0,14.0,74,0.00,,,0.00,0,Wunderground v.1.15,2013-04-19 16:39:00,
2013-04-19 12:44:00,68.9,60.3,29.87,South,170,7.0,13.0,74,0.00,,,0.00,0,Wunderground v.1.15,2013-04-19 16:44:00,
2013-04-19 12:49:00,69.9,60.1,29.86,SSE,153,12.0,17.0,71,0.00,,,0.00,0,Wunderground v.1.15,2013-04-19 16:49:00,
2013-04-19 12:54:00,70.0,59.8,29.86,SSE,151,4.0,16.0,70,0.00,,,0.00,0,Wunderground v.1.15,2013-04-19 16:54:00,
2013-04-19 12:59:00,70.4,59.3,29.86,SE,142,8.0,18.0,68,0.00,,,0.00,0,Wunderground v.1.15,2013-04-19 16:59:00,
2013-04-19 13:04:00,70.2,59.1,29.86,SSE,162,9.0,21.0,68,0.00,,,0.00,0,Wunderground v.1.15,2013-04-19 17:04:00,
2013-04-19 13:10:00,70.4,58.5,29.86,South,171,3.0,3.0,66,0.00,,,0.00,0,Wunderground v.1.15,2013-04-19 17:10:00,
2013-04-19 13:15:00,70.9,58.5,29.85,SSE,168,5.0,20.0,65,0.00,,,0.00,0,Wunderground v.1.15,2013-04-19 17:15:00,
2013-04-19 13:20:00,71.6,58.8,29.85,SSW,211,2.0,5.0,64,0.00,,,0.00,0,Wunderground v.1.15,2013-04-19 17:20:00,
2013-04-19 13:25:00,71.9,58.6,29.85,SE,146,5.0,16.0,63,0.00,,,0.00,0,Wunderground v.1.15,2013-04-19 17:25:00,
2013-04-19 13:30:00,72.2,58.5,29.84,West,276,2.0,4.0,62,0.00,,,0.00,0,Wunderground v.1.15,2013-04-19 17:30:00,
2013-04-19 13:35:00,72.2,58.5,29.85,South,191,9.0,16.0,62,0.00,,,0.00,0,Wunderground v.1.15,2013-04-19 17:35:00,
2013-04-19 13:40:00,71.9,58.6,29.84,SSE,158,7.0,7.0,63,0.00,,,0.00,0,Wunderground v.1.15,2013-04-19 17:40:00,
2013-04-19 13:45:00,72.2,58.5,29.84,SSE,157,8.0,19.0,62,0.00,,,0.00,0,Wunderground v.1.15,2013-04-19 17:45:00,
2013-04-19 13:50:00,72.1,58.8,29.84,SW,217,10.0,11.0,63,0.00,,,0.00,0,Wunderground v.1.15,2013-04-19 17:50:00,
2013-04-19 13:55:00,72.8,58.6,29.84,SSE,156,6.0,16.0,61,0.00,,,0.00,0,Wunderground v.1.15,2013-04-19 17:55:00,
2013-04-19 14:00:00,73.5,59.7,29.84,ESE,122,4.0,9.0,62,0.00,,,0.00,0,Wunderground v.1.15,2013-04-19 18:00:00,
2013-04-19 14:05:00,73.8,60.0,29.83,SSE,147,7.0,21.0,62,0.00,,,0.00,0,Wunderground v.1.15,2013-04-19 18:05:00,
2013-04-19 14:10:00,73.8,59.0,29.84,SSE,153,4.0,10.0,60,0.00,,,0.00,0,Wunderground v.1.15,2013-04-19 18:10:00,
2013-04-19 14:15:00,73.0,59.2,29.83,South,187,3.0,19.0,62,0.00,,,0.00,0,Wunderground v.1.15,2013-04-19 18:15:00,
2013-04-19 14:20:00,73.5,59.7,29.82,SSW,197,12.0,12.0,62,0.00,,,0.00,0,Wunderground v.1.15,2013-04-19 18:20:00,
2013-04-19 14:25:00,73.4,59.6,29.82,SSW,212,4.0,14.0,62,0.00,,,0.00,0,Wunderground v.1.15,2013-04-19 18:25:00,
2013-04-19 14:30:00,73.4,59.6,29.82,SSW,205,5.0,14.0,62,0.00,,,0.00,0,Wunderground v.1.15,2013-04-19 18:30:00,
2013-04-19 14:35:00,72.8,59.9,29.81,SE,141,8.0,14.0,64,0.00,,,0.00,0,Wunderground v.1.15,2013-04-19 18:35:00,
2013-04-19 14:40:00,72.4,59.5,29.81,SE,139,11.0,16.0,64,0.00,,,0.00,0,Wunderground v.1.15,2013-04-19 18:40:00,
2013-04-19 14:45:00,72.4,60.0,29.80,SSE,158,6.0,19.0,65,0.00,,,0.00,0,Wunderground v.1.15,2013-04-19 18:45:00,
2013-04-19 14:50:00,72.0,59.6,29.80,SW,221,4.0,11.0,65,0.00,,,0.00,0,Wunderground v.1.15,2013-04-19 18:50:00,
2013-04-19 14:55:00,72.4,60.0,29.80,South,188,8.0,13.0,65,0.00,,,0.00,0,Wunderground v.1.15,2013-04-19 18:55:00,
2013-04-19 15:00:00,72.6,60.2,29.79,SE,139,2.0,8.0,65,0.00,,,0.00,0,Wunderground v.1.15,2013-04-19 19:00:00,
2013-04-19 15:05:00,72.0,59.2,29.79,SSE,163,9.0,14.0,64,0.00,,,0.00,0,Wunderground v.1.15,2013-04-19 19:05:00,
2013-04-19 15:10:00,71.6,59.2,29.78,South,171,8.0,12.0,65,0.00,,,0.00,0,Wunderground v.1.15,2013-04-19 19:10:00,
2013-04-19 15:15:00,70.6,58.3,29.79,SSE,156,4.0,16.0,65,0.00,,,0.00,0,Wunderground v.1.15,2013-04-19 19:15:00,
2013-04-19 15:20:00,69.2,57.8,29.78,SE,134,8.0,13.0,67,0.00,,,0.00,0,Wunderground v.1.15,2013-04-19 19:20:00,
2013-04-19 15:25:00,68.5,57.9,29.78,SSW,200,2.0,14.0,69,0.00,,,0.00,0,Wunderground v.1.15,2013-04-19 19:25:00,
2013-04-19 15:30:00,69.5,58.5,29.77,SW,215,3.0,9.0,68,0.00,,,0.00,0,Wunderground v.1.15,2013-04-19 19:30:00,
2013-04-19 15:36:00,70.1,58.6,29.77,South,182,9.0,15.0,67,0.00,,,0.00,0,Wunderground v.1.15,2013-04-19 19:36:00,
2013-04-19 15:41:00,69.7,57.8,29.78,South,189,6.0,15.0,66,0.00,,,0.00,0,Wunderground v.1.15,2013-04-19 19:41:00,
2013-04-19 15:46:00,69.8,58.8,29.77,SSW,201,7.0,19.0,68,0.00,,,0.00,0,Wunderground v.1.15,2013-04-19 19:46:00,
2013-04-19 15:51:00,70.6,59.1,29.77,ESE,120,7.0,8.0,67,0.00,,,0.00,0,Wunderground v.1.15,2013-04-19 19:51:00,
2013-04-19 15:55:00,70.9,59.0,29.77,SSE,149,5.0,12.0,66,0.00,,,0.00,0,Wunderground v.1.15,2013-04-19 19:55:00,
2013-04-19 16:01:00,71.2,58.8,29.76,SE,137,5.0,11.0,65,0.00,,,0.00,0,Wunderground v.1.15,2013-04-19 20:01:00,
2013-04-19 16:06:00,71.1,58.7,29.76,South,180,6.0,12.0,65,0.00,,,0.00,0,Wunderground v.1.15,2013-04-19 20:06:00,
2013-04-19 16:11:00,71.2,58.8,29.76,SE,140,5.0,8.0,65,0.00,,,0.00,0,Wunderground v.1.15,2013-04-19 20:11:00,
2013-04-19 16:16:00,71.7,58.9,29.75,SSE,158,4.0,19.0,64,0.00,,,0.00,0,Wunderground v.1.15,2013-04-19 20:16:00,
2013-04-19 16:21:00,71.2,58.8,29.75,South,182,3.0,12.0,65,0.00,,,0.00,0,Wunderground v.1.15,2013-04-19 20:21:00,
2013-04-19 16:26:00,71.0,59.1,29.76,ESE,114,2.0,12.0,66,0.00,,,0.00,0,Wunderground v.1.15,2013-04-19 20:26:00,
2013-04-19 16:31:00,70.9,59.0,29.75,SSW,203,9.0,15.0,66,0.00,,,0.00,0,Wunderground v.1.15,2013-04-19 20:31:00,
2013-04-19 16:36:00,70.6,59.1,29.74,South,171,8.0,15.0,67,0.00,,,0.00,0,Wunderground v.1.15,2013-04-19 20:36:00,
2013-04-19 16:41:00,70.4,58.9,29.74,SSW,201,4.0,7.0,67,0.00,,,0.00,0,Wunderground v.1.15,2013-04-19 20:41:00,
2013-04-19 16:46:00,70.2,58.7,29.73,SE,146,7.0,14.0,67,0.00,,,0.00,0,Wunderground v.1.15,2013-04-19 20:46:00,
2013-04-19 16:51:00,70.1,59.0,29.73,SW,229,4.0,10.0,68,0.00,,,0.00,0,Wunderground v.1.15,2013-04-19 20:51:00,
2013-04-19 16:56:00,70.3,59.2,29.73,SW,228,3.0,22.0,68,0.00,,,0.00,0,Wunderground v.1.15,2013-04-19 20:56:00,
2013-04-19 17:01:00,70.2,59.1,29.73,East,98,3.0,11.0,68,0.00,,,0.00,0,Wunderground v.1.15,2013-04-19 21:01:00,
2013-04-19 17:06:00,69.8,58.8,29.72,SW,233,5.0,20.0,68,0.00,,,0.00,0,Wunderground v.1.15,2013-04-19 21:06:00,
2013-04-19 17:11:00,69.8,58.8,29.72,ESE,120,3.0,7.0,68,0.00,,,0.00,0,Wunderground v.1.15,2013-04-19 21:11:00,
2013-04-19 17:16:00,69.6,58.6,29.73,SSW,196,11.0,13.0,68,0.00,,,0.00,0,Wunderground v.1.15,2013-04-19 21:16:00,
2013-04-19 17:21:00,69.3,58.3,29.72,ESE,122,2.0,9.0,68,0.00,,,0.00,0,Wunderground v.1.15,2013-04-19 21:21:00,
2013-04-19 17:26:00,69.3,58.3,29.73,South,177,11.0,16.0,68,0.00,,,0.00,0,Wunderground v.1.15,2013-04-19 21:26:00,
2013-04-19 17:31:00,69.0,58.4,29.72,SSW,202,9.0,11.0,69,0.00,,,0.00,0,Wunderground v.1.15,2013-04-19 21:31:00,
2013-04-19 17:36:00,69.0,58.4,29.73,South,184,5.0,18.0,69,0.00,,,0.00,0,Wunderground v.1.15,2013-04-19 21:36:00,
2013-04-19 17:41:00,69.0,58.8,29.73,South,175,9.0,20.0,70,0.00,,,0.00,0,Wunderground v.1.15,2013-04-19 21:41:00,
2013-04-19 17:46:00,69.0,59.2,29.73,South,187,8.0,20.0,71,0.00,,,0.00,0,Wunderground v.1.15,2013-04-19 21:46:00,
2013-04-19 17:51:00,68.6,59.2,29.73,SW,214,10.0,26.0,72,0.00,,,0.00,0,Wunderground v.1.15,2013-04-19 21:51:00,
2013-04-19 17:56:00,68.1,59.5,29.73,SSW,196,20.0,26.0,74,0.00,,,0.00,0,Wunderground v.1.15,2013-04-19 21:56:00,
2013-04-19 18:01:00,67.8,59.2,29.73,South,190,5.0,9.0,74,0.00,,,0.00,0,Wunderground v.1.15,2013-04-19 22:01:00,
2013-04-19 18:06:00,67.7,59.5,29.72,SSW,212,3.0,18.0,75,0.00,,,0.00,0,Wunderground v.1.15,2013-04-19 22:06:00,
2013-04-19 18:11:00,67.6,59.4,29.72,South,182,15.0,19.0,75,0.00,,,0.00,0,Wunderground v.1.15,2013-04-19 22:11:00,
2013-04-19 18:16:00,67.2,59.0,29.72,SSE,160,12.0,19.0,75,0.00,,,0.00,0,Wunderground v.1.15,2013-04-19 22:16:00,
2013-04-19 18:21:00,67.0,59.2,29.72,South,176,13.0,13.0,76,0.00,,,0.00,0,Wunderground v.1.15,2013-04-19 22:21:00,
2013-04-19 18:26:00,66.8,59.0,29.72,SSW,201,2.0,18.0,76,0.00,,,0.00,0,Wunderground v.1.15,2013-04-19 22:26:00,
2013-04-19 18:31:00,67.0,59.5,29.72,SSE,154,10.0,14.0,77,0.00,,,0.00,0,Wunderground v.1.15,2013-04-19 22:31:00,
2013-04-19 18:36:00,66.8,59.4,29.72,South,170,16.0,16.0,77,0.00,,,0.00,0,Wunderground v.1.15,2013-04-19 22:36:00,
2013-04-19 18:41:00,66.8,59.4,29.71,South,175,7.0,21.0,77,0.00,,,0.00,0,Wunderground v.1.15,2013-04-19 22:41:00,
2013-04-19 18:46:00,66.6,59.5,29.72,SSW,197,10.0,21.0,78,0.00,,,0.00,0,Wunderground v.1.15,2013-04-19 22:46:00,
2013-04-19 18:52:00,66.5,59.4,29.72,South,170,11.0,12.0,78,0.00,,,0.00,0,Wunderground v.1.15,2013-04-19 22:52:00,
2013-04-19 18:57:00,66.3,59.2,29.72,SSE,165,5.0,14.0,78,0.00,,,0.00,0,Wunderground v.1.15,2013-04-19 22:57:00,
2013-04-19 19:01:00,65.9,58.8,29.71,SSW,207,8.0,16.0,78,0.00,,,0.00,0,Wunderground v.1.15,2013-04-19 23:01:00,
2013-04-19 19:06:00,65.7,58.7,29.71,South,177,10.0,17.0,78,0.00,,,0.00,0,Wunderground v.1.15,2013-04-19 23:06:00,
2013-04-19 19:11:00,65.5,58.5,29.71,South,171,15.0,15.0,78,0.00,,,0.00,0,Wunderground v.1.15,2013-04-19 23:11:00,
2013-04-19 19:16:00,65.3,58.6,29.71,South,190,8.0,18.0,79,0.00,,,0.00,0,Wunderground v.1.15,2013-04-19 23:16:00,
2013-04-19 19:21:00,65.1,58.1,29.71,SSE,154,16.0,24.0,78,0.00,,,0.00,0,Wunderground v.1.15,2013-04-19 23:21:00,
2013-04-19 19:26:00,64.9,57.9,29.70,South,175,7.0,24.0,78,0.00,,,0.00,0,Wunderground v.1.15,2013-04-19 23:26:00,
2013-04-19 19:31:00,65.0,57.6,29.70,SSE,150,6.0,15.0,77,0.00,,,0.00,0,Wunderground v.1.15,2013-04-19 23:31:00,
2013-04-19 19:36:00,64.8,57.4,29.70,South,181,3.0,23.0,77,0.00,,,0.00,0,Wunderground v.1.15,2013-04-19 23:36:00,
2013-04-19 19:41:00,64.8,57.8,29.70,SW,222,4.0,11.0,78,0.00,,,0.00,0,Wunderground v.1.15,2013-04-19 23:41:00,
2013-04-19 19:46:00,64.9,57.9,29.69,SSE,156,7.0,19.0,78,0.00,,,0.00,0,Wunderground v.1.15,2013-04-19 23:46:00,
2013-04-19 19:51:00,64.8,57.8,29.70,SW,223,3.0,8.0,78,0.00,,,0.00,0,Wunderground v.1.15,2013-04-19 23:51:00,
2013-04-19 19:56:00,64.8,57.8,29.70,SSE,155,4.0,14.0,78,0.00,,,0.00,0,Wunderground v.1.15,2013-04-19 23:56:00,
2013-04-19 20:01:00,64.9,57.9,29.70,SSE,166,6.0,16.0,78,0.00,,,0.00,0,Wunderground v.1.15,2013-04-20 00:01:00,
2013-04-19 20:06:00,64.7,57.7,29.69,SSW,193,6.0,16.0,78,0.00,,,0.00,0,Wunderground v.1.15,2013-04-20 00:06:00,
2013-04-19 20:11:00,64.9,57.9,29.69,SSE,168,6.0,18.0,78,0.00,,,0.00,0,Wunderground v.1.15,2013-04-20 00:11:00,
2013-04-19 20:17:00,64.9,57.9,29.70,SSE,155,11.0,20.0,78,0.00,,,0.00,0,Wunderground v.1.15,2013-04-20 00:17:00,
2013-04-19 20:22:00,64.8,57.8,29.69,South,182,8.0,15.0,78,0.00,,,0.00,0,Wunderground v.1.15,2013-04-20 00:22:00,
2013-04-19 20:27:00,64.8,57.8,29.70,South,172,5.0,16.0,78,0.00,,,0.00,0,Wunderground v.1.15,2013-04-20 00:27:00,
2013-04-19 20:32:00,64.6,57.6,29.69,South,177,3.0,12.0,78,0.00,,,0.00,0,Wunderground v.1.15,2013-04-20 00:32:00,
2013-04-19 20:37:00,64.4,57.4,29.70,SSW,211,8.0,12.0,78,0.00,,,0.00,0,Wunderground v.1.15,2013-04-20 00:37:00,
2013-04-19 20:42:00,64.5,57.5,29.70,SSE,151,4.0,9.0,78,0.00,,,0.00,0,Wunderground v.1.15,2013-04-20 00:42:00,
2013-04-19 20:47:00,64.5,57.5,29.70,SE,137,13.0,15.0,78,0.00,,,0.00,0,Wunderground v.1.15,2013-04-20 00:47:00,
2013-04-19 20:52:00,64.6,57.9,29.70,ESE,111,3.0,11.0,79,0.00,,,0.00,0,Wunderground v.1.15,2013-04-20 00:52:00,
2013-04-19 20:57:00,64.8,58.1,29.70,South,172,10.0,15.0,79,0.00,,,0.00,0,Wunderground v.1.15,2013-04-20 00:57:00,
2013-04-19 21:02:00,65.1,58.4,29.69,SW,215,6.0,18.0,79,0.00,,,0.00,0,Wunderground v.1.15,2013-04-20 01:02:00,
2013-04-19 21:07:00,65.2,58.5,29.69,South,178,6.0,25.0,79,0.00,,,0.00,0,Wunderground v.1.15,2013-04-20 01:07:00,
2013-04-19 21:12:00,65.4,58.7,29.69,SE,144,10.0,16.0,79,0.00,,,0.00,0,Wunderground v.1.15,2013-04-20 01:12:00,
2013-04-19 21:17:00,65.5,58.8,29.69,SSE,159,9.0,16.0,79,0.00,,,0.00,0,Wunderground v.1.15,2013-04-20 01:17:00,
2013-04-19 21:22:00,65.7,59.0,29.69,SSW,211,6.0,8.0,79,0.00,,,0.00,0,Wunderground v.1.15,2013-04-20 01:22:00,
2013-04-19 21:27:00,66.0,59.3,29.68,SE,143,4.0,13.0,79,0.00,,,0.00,0,Wunderground v.1.15,2013-04-20 01:27:00,
2013-04-19 21:32:00,66.2,59.5,29.68,SSW,192,6.0,16.0,79,0.00,,,0.00,0,Wunderground v.1.15,2013-04-20 01:32:00,
2013-04-19 21:37:00,66.5,59.8,29.68,SSW,196,10.0,19.0,79,0.00,,,0.00,0,Wunderground v.1.15,2013-04-20 01:37:00,
2013-04-19 21:42:00,66.9,60.2,29.68,SSE,151,9.0,13.0,79,0.00,,,0.00,0,Wunderground v.1.15,2013-04-20 01:42:00,
2013-04-19 21:47:00,67.4,60.3,29.69,SSW,208,16.0,30.0,78,0.00,,,0.00,0,Wunderground v.1.15,2013-04-20 01:47:00,
2013-04-19 21:52:00,67.7,60.2,29.70,South,183,12.0,19.0,77,0.00,,,0.00,0,Wunderground v.1.15,2013-04-20 01:52:00,
2013-04-19 21:57:00,67.8,60.3,29.71,South,184,14.0,19.0,77,0.00,,,0.00,0,Wunderground v.1.15,2013-04-20 01:57:00,
2013-04-19 22:02:00,67.8,60.0,29.71,SW,220,11.0,20.0,76,0.00,,,0.00,0,Wunderground v.1.15,2013-04-20 02:02:00,
2013-04-19 22:07:00,68.0,60.2,29.70,SSW,194,9.0,24.0,76,0.00,,,0.00,0,Wunderground v.1.15,2013-04-20 02:07:00,
2013-04-19 22:12:00,68.2,60.3,29.70,SE,138,2.0,17.0,76,0.00,,,0.00,0,Wunderground v.1.15,2013-04-20 02:12:00,
2013-04-19 22:17:00,68.1,60.2,29.71,SSE,167,7.0,19.0,76,0.00,,,0.00,0,Wunderground v.1.15,2013-04-20 02:17:00,
2013-04-19 22:22:00,68.1,60.2,29.70,SSW,192,5.0,10.0,76,0.00,,,0.00,0,Wunderground v.1.15,2013-04-20 02:22:00,
2013-04-19 22:27:00,67.8,60.0,29.70,South,177,4.0,17.0,76,0.00,,,0.00,0,Wunderground v.1.15,2013-04-20 02:27:00,
2013-04-19 22:32:00,67.8,60.3,29.70,SSW,196,7.0,10.0,77,0.00,,,0.00,0,Wunderground v.1.15,2013-04-20 02:32:00,
2013-04-19 22:37:00,67.7,60.2,29.71,SSE,149,6.0,11.0,77,0.00,,,0.00,0,Wunderground v.1.15,2013-04-20 02:37:00,
2013-04-19 22:42:00,67.7,60.2,29.71,SSW,210,3.0,15.0,77,0.00,,,0.00,0,Wunderground v.1.15,2013-04-20 02:42:00,
2013-04-19 22:47:00,67.6,60.1,29.71,South,169,8.0,17.0,77,0.00,,,0.00,0,Wunderground v.1.15,2013-04-20 02:47:00,
2013-04-19 22:52:00,67.5,60.0,29.70,South,181,5.0,13.0,77,0.00,,,0.00,0,Wunderground v.1.15,2013-04-20 02:52:00,
2013-04-19 22:57:00,67.6,59.8,29.72,SSW,207,3.0,14.0,76,0.00,,,0.00,0,Wunderground v.1.15,2013-04-20 02:57:00,
2013-04-19 23:02:00,67.8,59.6,29.72,SW,235,3.0,16.0,75,0.00,,,0.00,0,Wunderground v.1.15,2013-04-20 03:02:00,
2013-04-19 23:07:00,67.6,59.4,29.71,South,172,6.0,16.0,75,0.00,,,0.00,0,Wunderground v.1.15,2013-04-20 03:07:00,
2013-04-19 23:12:00,66.9,59.1,29.70,SSE,167,5.0,12.0,76,0.00,,,0.00,0,Wunderground v.1.15,2013-04-20 03:12:00,
2013-04-19 23:17:00,66.4,59.0,29.70,South,190,4.0,12.0,77,0.00,,,0.00,0,Wunderground v.1.15,2013-04-20 03:17:00,
2013-04-19 23:22:00,66.0,58.6,29.70,South,175,5.0,9.0,77,0.00,,,0.00,0,Wunderground v.1.15,2013-04-20 03:22:00,
2013-04-19 23:27:00,65.8,58.7,29.70,South,171,5.0,10.0,78,0.00,,,0.00,0,Wunderground v.1.15,2013-04-20 03:27:00,
2013-04-19 23:32:00,65.6,58.9,29.70,SSW,204,6.0,11.0,79,0.00,,,0.00,0,Wunderground v.1.15,2013-04-20 03:32:00,
2013-04-19 23:37:00,65.4,58.7,29.70,South,174,5.0,12.0,79,0.00,,,0.00,0,Wunderground v.1.15,2013-04-20 03:37:00,
2013-04-19 23:42:00,65.4,58.7,29.71,South,176,1.0,7.0,79,0.00,,,0.00,0,Wunderground v.1.15,2013-04-20 03:42:00,
2013-04-19 23:47:00,65.3,59.0,29.70,SE,145,5.0,11.0,80,0.00,,,0.00,0,Wunderground v.1.15,2013-04-20 03:47:00,
2013-04-19 23:52:00,65.4,59.1,29.69,SSE,162,4.0,7.0,80,0.00,,,0.00,0,Wunderground v.1.15,2013-04-20 03:52:00,
2013-04-19 23:57:00,65.2,58.9,29.70,SSE,147,3.0,7.0,80,0.00,,,0.00,0,Wunderground v.1.15,2013-04-20 03:57:00,